LNI520 WAHI-WAOO

Flight info

Callsign LNI520
Flight time 1h 8m
Altitude 33000
Route SO W17N PURWO DCT BA DCT SIPUT DCT IKAPI
Aircraft B738/M-SDE2E3FGHIRWXY/LB1

Departure

Time 2026-04-25 16:40
Airport Yogyakarta International Airport (WAHI)

Arrival

Time 2026-04-25 17:48
Airport Syamsudin Noor International Airport (WAOO)
Time Latitude Longitude Altitude Speed Heading
2026-04-25 16:20 -7.90108 110.05885 31 ft 0 kts 20°
2026-04-25 16:29 -7.90110 110.05884 30 ft 0 kts 25°
2026-04-25 16:30 -7.90119 110.05876 30 ft 2 kts 50°
2026-04-25 16:30 -7.90128 110.05866 30 ft 2 kts 20°
2026-04-25 16:30 -7.90143 110.05862 30 ft 2 kts 20°
2026-04-25 16:30 -7.90157 110.05856 30 ft 2 kts 20°
2026-04-25 16:31 -7.90170 110.05849 31 ft 2 kts 42°
2026-04-25 16:31 -7.90180 110.05838 30 ft 2 kts 58°
2026-04-25 16:31 -7.90186 110.05825 30 ft 2 kts 75°
2026-04-25 16:31 -7.90188 110.05810 30 ft 2 kts 92°
2026-04-25 16:32 -7.90186 110.05795 30 ft 2 kts 110°
2026-04-25 16:32 -7.90180 110.05782 30 ft 2 kts 111°
2026-04-25 16:32 -7.90177 110.05774 30 ft 0 kts 109°
2026-04-25 16:32 -7.90177 110.05775 30 ft 0 kts 109°
2026-04-25 16:34 -7.90177 110.05776 30 ft 1 kts 109°
2026-04-25 16:34 -7.90189 110.05808 30 ft 8 kts 108°
2026-04-25 16:34 -7.90219 110.05876 30 ft 12 kts 111°
2026-04-25 16:35 -7.90254 110.05975 30 ft 16 kts 112°
2026-04-25 16:35 -7.90290 110.06079 30 ft 15 kts 109°
2026-04-25 16:35 -7.90326 110.06176 30 ft 14 kts 110°
2026-04-25 16:35 -7.90360 110.06268 30 ft 13 kts 110°
2026-04-25 16:36 -7.90393 110.06354 30 ft 12 kts 111°
2026-04-25 16:36 -7.90404 110.06383 30 ft 13 kts 110°
2026-04-25 16:36 -7.90477 110.06511 30 ft 11 kts 168°
2026-04-25 16:36 -7.90554 110.06495 30 ft 10 kts 200°
2026-04-25 16:37 -7.90623 110.06497 30 ft 9 kts 134°
2026-04-25 16:37 -7.90651 110.06559 30 ft 10 kts 109°
2026-04-25 16:37 -7.90682 110.06645 30 ft 15 kts 110°
2026-04-25 16:37 -7.90721 110.06754 30 ft 16 kts 110°
2026-04-25 16:38 -7.90762 110.06867 30 ft 19 kts 110°
2026-04-25 16:38 -7.90814 110.07008 30 ft 22 kts 109°
2026-04-25 16:38 -7.90867 110.07155 30 ft 21 kts 110°
2026-04-25 16:38 -7.90928 110.07225 30 ft 11 kts 187°
2026-04-25 16:39 -7.90979 110.07169 30 ft 10 kts 246°
2026-04-25 16:39 -7.91008 110.07102 30 ft 9 kts 246°
2026-04-25 16:39 -7.91011 110.07052 30 ft 0 kts 288°
2026-04-25 16:39 -7.91010 110.07047 30 ft 4 kts 288°
2026-04-25 16:40 -7.90936 110.06844 30 ft 67 kts 290°
2026-04-25 16:40 -7.90689 110.06177 30 ft 133 kts 291°
2026-04-25 16:40 -7.90312 110.05127 61 ft 182 kts 289°
2026-04-25 16:40 -7.89864 110.03909 682 ft 187 kts 291°
2026-04-25 16:41 -7.89436 110.02683 1396 ft 191 kts 288°
2026-04-25 16:41 -7.89224 110.01791 1746 ft 201 kts 280°
2026-04-25 16:41 -7.89599 109.98257 2995 ft 243 kts 250°
2026-04-25 16:42 -7.90353 109.96661 3613 ft 260 kts 239°
2026-04-25 16:42 -7.91467 109.95164 4271 ft 274 kts 223°
2026-04-25 16:42 -7.93128 109.94187 4935 ft 284 kts 192°
2026-04-25 16:42 -7.95080 109.94155 5778 ft 283 kts 164°
2026-04-25 16:43 -7.96871 109.94955 6644 ft 282 kts 143°
2026-04-25 16:43 -7.98293 109.96294 7481 ft 282 kts 123°
2026-04-25 16:43 -7.99027 109.98099 8272 ft 283 kts 95°
2026-04-25 16:43 -7.98838 110.00036 9032 ft 286 kts 71°
2026-04-25 16:44 -7.97946 110.01826 9803 ft 290 kts 59°
2026-04-25 16:44 -7.96864 110.03567 10490 ft 298 kts 58°
2026-04-25 16:44 -7.95730 110.05369 10980 ft 312 kts 58°
2026-04-25 16:44 -7.94541 110.07278 11474 ft 326 kts 59°
2026-04-25 16:45 -7.93321 110.09254 11953 ft 339 kts 59°
2026-04-25 16:45 -7.92047 110.11327 12484 ft 350 kts 59°
2026-04-25 16:45 -7.90767 110.13413 13201 ft 354 kts 59°
2026-04-25 16:45 -7.89466 110.15533 13895 ft 358 kts 59°
2026-04-25 16:46 -7.88159 110.17662 14598 ft 361 kts 59°
2026-04-25 16:46 -7.86830 110.19828 15254 ft 365 kts 59°
2026-04-25 16:46 -7.85490 110.22010 15911 ft 368 kts 59°
2026-04-25 16:46 -7.84576 110.23499 16334 ft 371 kts 59°
2026-04-25 16:47 -7.82766 110.26447 17164 ft 375 kts 59°
2026-04-25 16:47 -7.81379 110.28713 17747 ft 379 kts 56°
2026-04-25 16:47 -7.79603 110.30666 18291 ft 385 kts 42°
2026-04-25 16:47 -7.77442 110.32321 18862 ft 389 kts 36°
2026-04-25 16:48 -7.75174 110.33853 19412 ft 393 kts 35°
2026-04-25 16:48 -7.72905 110.35384 19919 ft 397 kts 36°
2026-04-25 16:48 -7.70603 110.36984 20464 ft 400 kts 36°
2026-04-25 16:48 -7.68313 110.38624 20963 ft 404 kts 37°
2026-04-25 16:49 -7.66019 110.40301 21486 ft 407 kts 38°
2026-04-25 16:49 -7.63725 110.42004 21973 ft 411 kts 38°
2026-04-25 16:49 -7.61413 110.43734 22433 ft 415 kts 38°
2026-04-25 16:49 -7.59119 110.45459 22997 ft 415 kts 38°
2026-04-25 16:50 -7.57555 110.46637 23301 ft 418 kts 38°
2026-04-25 16:50 -7.54445 110.48981 23978 ft 420 kts 38°
2026-04-25 16:50 -7.52082 110.50763 24468 ft 423 kts 38°
2026-04-25 16:50 -7.49742 110.52528 24921 ft 425 kts 38°
2026-04-25 16:51 -7.47359 110.54324 25441 ft 426 kts 38°
2026-04-25 16:51 -7.44966 110.56128 25873 ft 429 kts 38°
2026-04-25 16:51 -7.42571 110.57931 26362 ft 430 kts 38°
2026-04-25 16:51 -7.40963 110.59142 26679 ft 431 kts 38°
2026-04-25 16:52 -7.37754 110.61560 27181 ft 435 kts 38°
2026-04-25 16:52 -7.35299 110.63409 27618 ft 437 kts 38°
2026-04-25 16:52 -7.32893 110.65272 27987 ft 439 kts 41°
2026-04-25 16:52 -7.30725 110.67438 28415 ft 439 kts 50°
2026-04-25 16:53 -7.27585 110.72697 29156 ft 445 kts 67°
2026-04-25 16:53 -7.26514 110.75661 29504 ft 448 kts 70°
2026-04-25 16:53 -7.25544 110.78623 30010 ft 447 kts 71°
2026-04-25 16:54 -7.24574 110.81587 30607 ft 443 kts 70°
2026-04-25 16:54 -7.23562 110.84538 31090 ft 442 kts 69°
2026-04-25 16:54 -7.22510 110.87415 31541 ft 441 kts 68°
2026-04-25 16:54 -7.21394 110.90307 31981 ft 441 kts 67°
2026-04-25 16:55 -7.20249 110.93151 32360 ft 441 kts 66°
2026-04-25 16:55 -7.19068 110.96003 32762 ft 441 kts 66°
2026-04-25 16:55 -7.17874 110.98836 32904 ft 444 kts 65°
2026-04-25 16:56 -7.15443 111.04511 32895 ft 439 kts 65°
2026-04-25 16:56 -7.13006 111.10149 32902 ft 444 kts 65°
2026-04-25 16:57 -7.10492 111.15943 32896 ft 457 kts 65°
2026-04-25 16:57 -7.07927 111.21852 32893 ft 461 kts 65°
2026-04-25 16:58 -7.05360 111.27769 32892 ft 458 kts 65°
2026-04-25 16:58 -7.02809 111.33649 32897 ft 459 kts 65°
2026-04-25 16:59 -7.00247 111.39541 32897 ft 459 kts 65°
2026-04-25 16:59 -6.97408 111.45230 32901 ft 457 kts 59°
2026-04-25 17:00 -6.94090 111.50732 32899 ft 456 kts 57°
2026-04-25 17:00 -6.90709 111.56133 32893 ft 455 kts 57°
2026-04-25 17:01 -6.87356 111.61526 32896 ft 456 kts 57°
2026-04-25 17:01 -6.84019 111.66951 32889 ft 456 kts 57°
2026-04-25 17:02 -6.80704 111.72377 32885 ft 455 kts 57°
2026-04-25 17:02 -6.77401 111.77799 32879 ft 454 kts 57°
2026-04-25 17:03 -6.74085 111.83246 32876 ft 454 kts 57°
2026-04-25 17:03 -6.70793 111.88654 32877 ft 453 kts 57°
2026-04-25 17:04 -6.67480 111.94093 32874 ft 454 kts 57°
2026-04-25 17:04 -6.64203 111.99475 32876 ft 454 kts 57°
2026-04-25 17:05 -6.60900 112.04896 32873 ft 454 kts 58°
2026-04-25 17:05 -6.55951 112.13017 32870 ft 453 kts 58°
2026-04-25 17:06 -6.52651 112.18428 32870 ft 453 kts 58°
2026-04-25 17:06 -6.49334 112.23865 32872 ft 455 kts 58°
2026-04-25 17:07 -6.45840 112.29166 32864 ft 452 kts 51°
2026-04-25 17:07 -6.41661 112.33923 32865 ft 453 kts 46°
2026-04-25 17:08 -6.37352 112.38489 32865 ft 452 kts 46°
2026-04-25 17:08 -6.33051 112.43125 32861 ft 453 kts 47°
2026-04-25 17:09 -6.28811 112.47810 32860 ft 453 kts 48°
2026-04-25 17:09 -6.24599 112.52529 32858 ft 453 kts 48°
2026-04-25 17:10 -6.20411 112.57247 32858 ft 452 kts 48°
2026-04-25 17:10 -6.16232 112.61963 32858 ft 450 kts 48°
2026-04-25 17:11 -6.12035 112.66699 32850 ft 453 kts 48°
2026-04-25 17:11 -6.06520 112.72921 32842 ft 454 kts 48°
2026-04-25 17:12 -5.99785 112.80518 32842 ft 452 kts 48°
2026-04-25 17:12 -5.93561 112.87534 32840 ft 452 kts 48°
2026-04-25 17:13 -5.90017 112.91380 32841 ft 451 kts 43°
2026-04-25 17:13 -5.84114 112.95796 32840 ft 453 kts 34°
2026-04-25 17:14 -5.78793 112.99207 32842 ft 454 kts 33°
2026-04-25 17:14 -5.73464 113.02671 32843 ft 453 kts 34°
2026-04-25 17:15 -5.68229 113.06184 32848 ft 453 kts 34°
2026-04-25 17:15 -5.62990 113.09766 32858 ft 454 kts 35°
2026-04-25 17:16 -5.57741 113.13383 32858 ft 453 kts 35°
2026-04-25 17:16 -5.52538 113.16978 32847 ft 452 kts 35°
2026-04-25 17:17 -5.47330 113.20579 32842 ft 453 kts 35°
2026-04-25 17:17 -5.42107 113.24189 32842 ft 453 kts 35°
2026-04-25 17:18 -5.36914 113.27776 32842 ft 452 kts 35°
2026-04-25 17:18 -5.31700 113.31377 32842 ft 452 kts 35°
2026-04-25 17:19 -5.26473 113.34987 32843 ft 453 kts 35°
2026-04-25 17:19 -5.21277 113.38576 32842 ft 452 kts 35°
2026-04-25 17:20 -5.16063 113.42175 32843 ft 454 kts 35°
2026-04-25 17:20 -5.10820 113.45792 32842 ft 453 kts 35°
2026-04-25 17:21 -5.05612 113.49386 32842 ft 452 kts 35°
2026-04-25 17:21 -5.00412 113.52973 32843 ft 454 kts 35°
2026-04-25 17:22 -4.96083 113.55960 32843 ft 453 kts 35°
2026-04-25 17:22 -4.90004 113.60152 32843 ft 453 kts 35°
2026-04-25 17:23 -4.84818 113.63728 32841 ft 453 kts 35°
2026-04-25 17:23 -4.79614 113.67315 32842 ft 453 kts 35°
2026-04-25 17:24 -4.77003 113.69115 32665 ft 454 kts 35°
2026-04-25 17:24 -4.74411 113.70901 32398 ft 449 kts 35°
2026-04-25 17:24 -4.71851 113.72665 32143 ft 438 kts 36°
2026-04-25 17:24 -4.69373 113.74372 31893 ft 428 kts 36°
2026-04-25 17:25 -4.66910 113.76070 31642 ft 424 kts 36°
2026-04-25 17:25 -4.64479 113.77747 31397 ft 427 kts 36°
2026-04-25 17:25 -4.62018 113.79444 31147 ft 428 kts 36°
2026-04-25 17:25 -4.59540 113.81152 30893 ft 426 kts 36°
2026-04-25 17:26 -4.57087 113.82842 30641 ft 424 kts 36°
2026-04-25 17:26 -4.54644 113.84525 30387 ft 421 kts 36°
2026-04-25 17:26 -4.52239 113.86181 30137 ft 420 kts 36°
2026-04-25 17:26 -4.49815 113.87850 29886 ft 419 kts 36°
2026-04-25 17:27 -4.47404 113.89510 29633 ft 418 kts 36°
2026-04-25 17:27 -4.45000 113.91167 29379 ft 416 kts 36°
2026-04-25 17:27 -4.42619 113.92806 29126 ft 415 kts 36°
2026-04-25 17:27 -4.41846 113.93340 29045 ft 414 kts 36°
2026-04-25 17:28 -4.37842 113.96097 28629 ft 413 kts 36°
2026-04-25 17:28 -4.35502 113.97710 28381 ft 412 kts 36°
2026-04-25 17:28 -4.33111 113.99353 28127 ft 411 kts 36°
2026-04-25 17:28 -4.30600 114.00687 27877 ft 412 kts 24°
2026-04-25 17:29 -4.27868 114.01570 27636 ft 413 kts 17°
2026-04-25 17:29 -4.25051 114.02254 27313 ft 411 kts 15°
2026-04-25 17:29 -4.22255 114.02853 26841 ft 408 kts 14°
2026-04-25 17:29 -4.19493 114.03432 26304 ft 406 kts 14°
2026-04-25 17:30 -4.16738 114.04025 25749 ft 404 kts 15°
2026-04-25 17:30 -4.13985 114.04644 25183 ft 403 kts 15°
2026-04-25 17:30 -4.11252 114.05281 24619 ft 401 kts 16°
2026-04-25 17:30 -4.08547 114.05929 24056 ft 400 kts 16°
2026-04-25 17:31 -4.05833 114.06589 23490 ft 399 kts 16°
2026-04-25 17:31 -4.03138 114.07252 22932 ft 398 kts 17°
2026-04-25 17:31 -4.00422 114.07923 22361 ft 397 kts 16°
2026-04-25 17:31 -3.97761 114.08582 21820 ft 396 kts 16°
2026-04-25 17:32 -3.95068 114.09251 21256 ft 396 kts 16°
2026-04-25 17:32 -3.92389 114.09913 20691 ft 395 kts 15°
2026-04-25 17:32 -3.89705 114.10487 20128 ft 395 kts 12°
2026-04-25 17:32 -3.86985 114.10766 19865 ft 387 kts
2026-04-25 17:33 -3.84292 114.10726 19631 ft 378 kts 359°
2026-04-25 17:33 -3.81655 114.10537 19124 ft 375 kts 357°
2026-04-25 17:33 -3.79093 114.10291 18408 ft 371 kts 356°
2026-04-25 17:33 -3.76531 114.10024 17651 ft 367 kts 356°
2026-04-25 17:34 -3.73988 114.09763 16883 ft 364 kts 356°
2026-04-25 17:34 -3.71478 114.09520 16163 ft 359 kts 356°
2026-04-25 17:34 -3.69014 114.09297 15562 ft 351 kts 357°
2026-04-25 17:34 -3.66618 114.09090 15086 ft 345 kts 357°
2026-04-25 17:35 -3.64193 114.08887 14544 ft 352 kts 357°
2026-04-25 17:35 -3.61738 114.08684 14035 ft 351 kts 357°
2026-04-25 17:35 -3.59290 114.08481 13519 ft 350 kts 357°
2026-04-25 17:35 -3.56859 114.08279 13006 ft 349 kts 357°
2026-04-25 17:36 -3.54403 114.08074 12496 ft 348 kts 357°
2026-04-25 17:36 -3.52023 114.07875 12082 ft 345 kts 357°
2026-04-25 17:36 -3.49628 114.07761 11609 ft 341 kts
2026-04-25 17:36 -3.47288 114.08143 11122 ft 335 kts 23°
2026-04-25 17:37 -3.45392 114.09379 10955 ft 318 kts 47°
2026-04-25 17:37 -3.44159 114.11137 10823 ft 304 kts 66°
2026-04-25 17:37 -3.43480 114.13093 10691 ft 291 kts 77°
2026-04-25 17:37 -3.43146 114.15052 10520 ft 281 kts 84°
2026-04-25 17:38 -3.42987 114.16988 10242 ft 277 kts 86°
2026-04-25 17:38 -3.42910 114.18270 10005 ft 276 kts 86°
2026-04-25 17:38 -3.42747 114.20805 9532 ft 275 kts 86°
2026-04-25 17:38 -3.42604 114.22709 9204 ft 273 kts 85°
2026-04-25 17:39 -3.42452 114.24598 8829 ft 272 kts 85°
2026-04-25 17:39 -3.42299 114.26462 8532 ft 269 kts 85°
2026-04-25 17:39 -3.42141 114.28359 8041 ft 275 kts 85°
2026-04-25 17:39 -3.41980 114.30280 7501 ft 281 kts 84°
2026-04-25 17:40 -3.41815 114.32230 6961 ft 286 kts 84°
2026-04-25 17:40 -3.41645 114.34227 6411 ft 290 kts 84°
2026-04-25 17:40 -3.41473 114.36246 5882 ft 294 kts 84°
2026-04-25 17:40 -3.41299 114.38294 5460 ft 292 kts 84°
2026-04-25 17:41 -3.41129 114.40307 5108 ft 289 kts 84°
2026-04-25 17:41 -3.40959 114.42313 4728 ft 287 kts 84°
2026-04-25 17:41 -3.40793 114.44276 4377 ft 278 kts 84°
2026-04-25 17:41 -3.40637 114.46136 4038 ft 256 kts 84°
2026-04-25 17:42 -3.40496 114.47830 3925 ft 236 kts 84°
2026-04-25 17:42 -3.40285 114.49400 3940 ft 217 kts 75°
2026-04-25 17:42 -3.39908 114.50743 3924 ft 188 kts 78°
2026-04-25 17:42 -3.39825 114.52008 3941 ft 180 kts 92°
2026-04-25 17:43 -3.39969 114.53276 3943 ft 182 kts 97°
2026-04-25 17:43 -3.40177 114.54517 3945 ft 181 kts 98°
2026-04-25 17:43 -3.40404 114.55763 3890 ft 183 kts 98°
2026-04-25 17:43 -3.40631 114.56985 3668 ft 172 kts 98°
2026-04-25 17:44 -3.40842 114.58116 3371 ft 161 kts 98°
2026-04-25 17:44 -3.41041 114.59196 3172 ft 156 kts 98°
2026-04-25 17:44 -3.41244 114.60294 2982 ft 160 kts 98°
2026-04-25 17:44 -3.41446 114.61377 2746 ft 157 kts 98°
2026-04-25 17:45 -3.41647 114.62457 2542 ft 157 kts 98°
2026-04-25 17:45 -3.41711 114.62807 2472 ft 156 kts 98°
2026-04-25 17:45 -3.42040 114.64576 2123 ft 154 kts 99°
2026-04-25 17:45 -3.42235 114.65630 1927 ft 153 kts 99°
2026-04-25 17:46 -3.42427 114.66671 1727 ft 151 kts 99°
2026-04-25 17:46 -3.42621 114.67718 1527 ft 152 kts 99°
2026-04-25 17:46 -3.42813 114.68748 1325 ft 151 kts 99°
2026-04-25 17:46 -3.43007 114.69788 1126 ft 153 kts 99°
2026-04-25 17:47 -3.43202 114.70843 925 ft 154 kts 100°
2026-04-25 17:47 -3.43406 114.71899 708 ft 155 kts 101°
2026-04-25 17:47 -3.43619 114.72968 500 ft 156 kts 101°
2026-04-25 17:47 -3.43820 114.74043 318 ft 156 kts 100°
2026-04-25 17:48 -3.44198 114.76078 70 ft 116 kts 100°
2026-04-25 17:48 -3.44305 114.76651 70 ft 53 kts 101°
2026-04-25 17:48 -3.44371 114.76926 71 ft 31 kts 101°
2026-04-25 17:49 -3.44397 114.77088 71 ft 4 kts 89°
2026-04-25 17:49 -3.44384 114.77087 71 ft 3 kts 301°
2026-04-25 17:49 -3.44375 114.77034 71 ft 11 kts 278°
2026-04-25 17:49 -3.44359 114.76926 71 ft 19 kts 277°
2026-04-25 17:50 -3.44330 114.76791 71 ft 19 kts 282°
2026-04-25 17:50 -3.44305 114.76659 70 ft 18 kts 279°
2026-04-25 17:50 -3.44284 114.76535 70 ft 18 kts 280°
2026-04-25 17:50 -3.44260 114.76413 70 ft 17 kts 281°
2026-04-25 17:51 -3.44238 114.76296 70 ft 16 kts 281°
2026-04-25 17:51 -3.44218 114.76185 70 ft 16 kts 280°
2026-04-25 17:51 -3.44199 114.76079 70 ft 15 kts 280°
2026-04-25 17:51 -3.44180 114.75977 70 ft 11 kts 284°
2026-04-25 17:52 -3.44119 114.75946 70 ft 10 kts
2026-04-25 17:52 -3.44071 114.75954 70 ft 10 kts 10°
2026-04-25 17:52 -3.43981 114.75971 70 ft 9 kts 10°
2026-04-25 17:52 -3.43934 114.75986 70 ft 6 kts 47°
2026-04-25 17:53 -3.43925 114.76024 70 ft 4 kts 90°
2026-04-25 17:53 -3.43914 114.76041 70 ft 2 kts 31°
2026-04-25 17:53 -3.43895 114.76047 70 ft 3 kts 13°
2026-04-25 17:53 -3.43873 114.76051 70 ft 2 kts
2026-04-25 17:54 -3.43859 114.76054 70 ft 1 kts
2026-04-25 17:54 -3.43855 114.76054 70 ft 0 kts
2026-04-25 17:54 -3.43854 114.76054 70 ft 0 kts
2026-04-25 17:54 -3.43852 114.76054 70 ft 0 kts
2026-04-25 17:55 -3.43851 114.76055 70 ft 0 kts 10°